Погода в Намдине

Вьетнам     20°25′31″N   106°10′29″E
темп.,
°C
ветер,
м/с
пор.,
м/с
влажн.,
%
обл.,
%
осадки,
мм/ч
давл.,
гПа
погр.,
м
24 сентября, пт
пт2401:00+24ссв2498100 7.8 1011102
04:00+24ссв3897100 9.4 1010214
07:00+25ссв3695100 15.2 1011231
10:00+26всв4989100 7.9 1012370
13:00+26всв4889100 18.8 1010311
16:00+25всв4991100 10.3 1009339
19:00+25св4994100 15.3 1010379
22:00+24с2596100 4.8 1012175
25 сентября, сб
сб2501:00+24с3697100 9.8 1011196
04:00+24с3698100 3.3 1010214
07:00+24ссв3896100 6.1 1011390
10:00+25ссв379399 0.7 1012390
13:00+28всв578290 4.8 1010827
16:00+28в478316 6.7 1009770
19:00+25вюв3690100 8.7 1010123
22:00+25в119218 2.5 101222
26 сентября, вс
вс2601:00+24ссз22955 6.2 101134
04:00+23ссз359815 1.2 1011122
07:00+24ссз469485 1.3 1012220
10:00+29ссв457338 0.3 1012995
13:00+31всв456735 3.4 10101300
16:00+29в577510 1.2 1009788
19:00+26в358894 2.4 1010128
22:00+25св229046 2.3 101151
27 сентября, пн
пн2701:00+24с1295100 9.1 101138
04:00+25с2388100 1.5 101051
07:00+25ссз249194 1.5 1011171
10:00+29ссз33725 1.3 1012687
13:00+31св235968 1.6 10091508
16:00+30в346824 0.1 1008572
19:00+26вюв34825 0.3 100971
22:00+26в11845 0.0 101020
28 сентября, вт
вт2801:00+25ссв01885 0.6 100915
04:00+25с11915 0.0 100820
07:00+26с11875 0.0 1010111
10:00+30ссв117030 0.6 1011912
13:00+32всв116146 1.8 10081357
16:00+29вюв457735 0.1 1006364
19:00+27вюв36840 0.1 1008136
22:00+26юв23850 0.0 100959